Regional Weather Roundup
Issued by NWS Kansas City/Pleasant Hill, MO

Home | Current Version | Previous Version | Graphics & Text | Print | Product List | Glossary Off
Versions: 1 2 3 4 5 6 7 8 9 10 11 12 13 14 15 16 17 18 19 20 21 22 23 24 25 26 27 28 29 30 31 32 33 34 35 36 37 38 39 40 41 42 43 44 45 46 47 48 49 50

000
ASUS43 KEAX 181810
RWREAX

WEATHER ROUNDUP FOR EASTERN KANSAS AND NORTHWEST MISSOURI
NATIONAL WEATHER SERVICE KANSAS CITY/PLEASANT HILL MO
100 PM CDT THU SEP 18 2014

KSZ040-057-103>105-MOZ028-029-037-043-181900-
...KANSAS CITY METROPOLITAN AREA...

CITY           SKY/WX    TMP DP  RH WIND       PRES   REMARKS
K.C. INTL      CLOUDY    66  61  84 E10       30.03F
6HR MIN TEMP:  59; 6HR MAX TEMP:  66;

K.C. DOWNTOWN  CLOUDY    67  61  81 E8        30.02F
6HR MIN TEMP:  62; 6HR MAX TEMP:  67;

LEES SUMMIT    CLOUDY    65  61  87 E10       30.03F
6HR MIN TEMP:  60; 6HR MAX TEMP:  65;

OLATHE - IXD   CLOUDY    67  63  87 NE9       30.02F
6HR MIN TEMP:  62; 6HR MAX TEMP:  67;

OLATHE - OJC   CLOUDY    65  62  90 E9        30.01F
6HR MIN TEMP:  60; 6HR MAX TEMP:  66;

LAWRENCE       CLOUDY    66  61  84 E9        30.01F HAZE

$$

MOZ001>008-011>017-020>025-030>033-038>040-044>046-053-054-181900-
...NORTHERN AND CENTRAL MISSOURI...

CITY           SKY/WX    TMP DP  RH WIND       PRES   REMARKS
ST. JOSEPH     CLOUDY    63  59  87 E7        30.05F
6HR MIN TEMP:  59; 6HR MAX TEMP:  63;

MOSBY          CLOUDY    64  59  82 NE8       30.04S
WHITEMAN AFB   NOT AVBL
CLINTON        CLOUDY    68  64  88 E9        30.01F
SEDALIA        CLOUDY    67  61  81 E9        30.04F
6HR MIN TEMP:  61; 6HR MAX TEMP:  67;

WARSAW         NOT AVBL
MARSHALL       CLOUDY    72  64  78 E9        30.04F HAZE
CHILLICOTHE      N/A     66  59  78 E5        30.07F
6HR MIN TEMP:  59; 6HR MAX TEMP:  66;

KIRKSVILLE     CLOUDY    67  57  70 SE13      30.08F
6HR MIN TEMP:  53; 6HR MAX TEMP:  67;


$$

MOZ041-047>049-056>058-063>065-088>090-097-181900-
...EASTERN AND SOUTHERN MISSOURI...

CITY           SKY/WX    TMP DP  RH WIND       PRES   REMARKS
ST. LOUIS INTL MOSUNNY   71  56  58 NE8       30.08F
6HR MIN TEMP:  62; 6HR MAX TEMP:  71;

SPIRIT OF STL  PTSUNNY   71  57  61 E9        30.06S
COLUMBIA       PTSUNNY   69  61  75 SE9         N/A
JEFFERSON CITY CLOUDY    68  59  73 E8        30.03F
MEXICO         PTSUNNY   75  63  64 SE9       30.06
HANNIBAL       CLOUDY    72  52  49 E9        30.08F
ROLLA          CLOUDY    65  59  81 E9        30.04S
LEBANON        CLOUDY    66  61  82 SE8       30.03R
OSAGE BEACH    CLOUDY    70  61  73 NE8       30.03F
SPRINGFIELD    CLOUDY    73  63  70 E8        29.99F
BRANSON        CLOUDY    68  64  88 E6        30.03S
NEVADA         CLOUDY    73  64  73 N5        30.00R
JOPLIN         CLOUDY    70  64  81 E9        29.98F
WEST PLAINS    CLOUDY    62  60  93 E5        30.05R

$$

IAZ060-094-KSZ022-034>040-054-083-096-NEZ052-066-093-181900-
...KANSAS...SOUTHEAST NEBRASKA AND IOWA...

CITY           SKY/WX    TMP DP  RH WIND       PRES   REMARKS
TOPEKA         CLOUDY    68  64  87 E7        30.02S
6HR MIN TEMP:  64; 6HR MAX TEMP:  69;

MANHATTAN      CLOUDY    73  66  78 SE6       30.00F
EMPORIA        CLOUDY    68  64  87 NE6       30.00F
CHANUTE        CLOUDY    67  64  90 N6        29.97F
WICHITA        MOSUNNY   82  57  42 S20G26    29.99F
OMAHA          MOSUNNY   72  57  59 SE10      30.03F
LINCOLN        SUNNY     75  60  59 SE14      30.02F
FALLS CITY     CLOUDY    66  59  78 E9        30.03F
LAMONI         SUNNY     65  55  70 SE8       30.07S
DES MOINES     MOSUNNY   70  53  54 S13       30.08F

$$




USA.gov is the U.S. government's official web portal to all federal, state and local government web resources and services.